Voltar ao catálogo

STARLINK-30780

AtivoComunicaçõesVLEO
NORAD 58140·PAYLOAD·🇺🇸 United States

Lançado Oct 22, 2023 de Cape Canaveral Space Force Station

Loading…

Próximas Passagens (próximas 24 horas)

TLE

AtualizadoSource: CelesTrak SupGP

Época: Sep 14, 2026, 21:36 UTC

1 58140C 23162Y   26257.90048611 -.00066585  00000+0 -24118-2 0  2579
2 58140  43.0025 143.7109 0001333 269.1110 208.7889 15.27609954    10

Acompanhe STARLINK-30780 em tempo real com AllMySat

Download on the App Store